Simultaneous Nadir Overpasses (SNOs) Predictions

Prediction of SNOs between NOAA-19 and METOP-C Satellite Orbit:

Table of predicted SNOs for the next 14.0 days since TLE Epoch: 6/28/2025
Index Date (NOAA-19) Time (NOAA-19) Lat,Lon (NOAA-19) SZA (NOAA-19 ) Date (METOP-C) Time (METOP-C) Lat,Lon (METOP-C) SZA (METOP-C ) Distance(km) Time Diff (sec)
1 07/06/2025 23:18:36 80.63, -94.59 65.11 07/06/2025 23:19:45 80.63, -94.72 65.14 2.31 69
2 07/07/2025 00:09:35 -80.61, 72.97 114.85 07/07/2025 00:10:25 -80.62, 72.83 114.83 2.72 50
3 07/07/2025 01:00:32 80.62,-119.93 65.14 07/07/2025 01:01:06 80.62,-119.86 65.17 1.27 34
4 07/07/2025 01:51:30 -80.59, 47.97 114.77 07/07/2025 01:51:45 -80.58, 48.02 114.75 0.97 15
5 07/07/2025 02:42:26 80.58,-144.58 65.27 07/07/2025 02:42:26 80.58,-144.67 65.26 1.75 0
6 07/07/2025 03:33:25 -80.56, 22.97 114.69 07/07/2025 03:33:06 -80.57, 22.87 114.71 2.00 19
7 07/07/2025 04:24:21 80.55,-169.58 65.35 07/07/2025 04:23:46 80.55,-169.48 65.34 1.84 35
8 07/07/2025 05:15:20 -80.53, -2.03 114.61 07/07/2025 05:14:26 -80.53, -1.94 114.63 1.68 54



Historial Predications of SNOs between NOAA-19 and METOP-C
